Showing default

COSMOS 2246, 22647

Orbit data source: Space-Track

COSMOS 2246, 22647 is a payload satellite owned by VKS (CIS) in LEO that was launched on Tue, 11 May 1993 UTC via a TSIKLON-3 launch vehicle from the Plesetsk Missile And Space Complex (PKMTR). Payload-class satellites include a variety of spacecraft equipped with specific instruments for various scientific and technological missions. These include communications satellites like Starlink; space stations such as the ISS; scientific satellites like the Hubble; Earth observation satellites from companies like Planet Labs, Umbra, and HawkEye 360; GPS; miniature CubeSats for education and research; and military/defense satellites.

Loading next visibility...
Identifier
22647, 1993-030B
Orbit
LEO
Country
Flag of CISCIS
Related business
Manufacturer
NPO PM
Mission
Defense Communications
Bus & Motor
STRELA-3, Unknown motor
Mass
225 kg wet, 225 kg dry
Launch date (UTC)
1993-05-11 (33 years ago)
Launch vehicle
TSIKLON-3
Launch site
Plesetsk Missile And Space Complex (PKMTR)
Object type
Payload
Rocket body
Debris
Shape & HBR
Cyl, 0.8 m
Radar Cross Section
1.257 m², Medium (>0.1 m² and < 1m²)

Expand to show TLE details & history
Last TLE update: 14 hours ago

TLE from 14 hours ago
0 COSMOS 2246
1 22647U 93030B   26034.50233684  .00000015  00000-0  26851-4 0  9994
2 22647  82.5830  42.2435 0009229 211.7728 148.2808 12.63632531509646
Epoch: 2026-02-03T12:03Z
TLE epoch observation values (Epoch: 2026-02-03T12:03:21.902Z)
Latitude
-0.00005°
Longitude
87.71989°
Altitude
1,416.834 km
Speed
7.149 km/s
True Right ascension
02h 48m 58s
True Declination
0° 00' 00"
Sunlit
Object was in daylight at epoch
Visualization orbit readout
Latitude
Unknown
Longitude
Unknown
Altitude
Unknown
Speed
Unknown
Apparent Right ascension
Unknown
Apparent Declination
Unknown
Sunlit
N/A
Visualization observer readout
Local Sidereal Time
03:32:41
Azimuth
Unknown
Elevation
Unknown
Doppler factor
Unknown
Orbital elements
Apogee altitude
1,412.489 km
Perigee altitude
1,398.122 km
Semi-major axis
7,783.443 km
Eccentricity
0.00092
Inclination
82.583°
RAAN
42.2435°
Arg. of periapsis
211.7728°
True anomaly
148.33635°
Mean anomaly
148.2808°
Eccentric anomaly
148.30858°
Mean motion
3.16072 °/min
Orbital period
113.9 mins
BSTAR
0.000026851
Loading maneuver chart data...
Computing Atmospheric mass density...
Loading historical data...
Loading historical data...
Loading historical data...
Loading historical data...
Loading historical data...
Loading historical data...
Loading historical data...

Documentation

Showing up to 5 results
|